{"data":{"norad_id":55934,"epoch":"2026-09-20T23:11:01.607712Z","epoch_age_seconds":65852,"freshness":"FRESH","line1":"1 55934U 23037W   26263.96599083  .00164643  00000+0  11933-1 0  9990","line2":"2 55934  69.9987 151.9785 0003415 267.3026  92.7745 15.03010674193230","mean_motion":15.03010674,"eccentricity":0.0003415,"inclination_deg":69.9987,"raan_deg":151.9785,"arg_perigee_deg":267.3026,"mean_anomaly_deg":92.7745,"bstar":0.011933,"rev_number":19323,"period_min":95.807702826733,"perigee_km":555.25030907171,"apogee_km":559.98743033072,"semimajor_km":6935.7558697012,"source":"CELESTRAK","updated_at":"2026-09-21T09:00:33.326283Z"}}